Johnstown, PA

5:09 AM EDT on June 23, 2017 (GMT -0400)
Johnstown-Cambria County

Weather History for KJST - January, 2014

Change the Weather History Date:

Monday, January 6, 2014

  Actual Average Record
Temperature  
Mean Temperature 16 °F 26 °F  
Max Temperature 43 °F 33 °F 59 °F (1946)
Min Temperature -11 °F 19 °F -11 °F (2014)
Degree Days  
Heating Degree Days 49 39  
Month to date heating degree days 268 234  
Since 1 July heating degree days 2962 2818  
Cooling Degree Days 0 0  
Month to date cooling degree days 0 0  
Year to date cooling degree days 0 0  
Moisture  
Dew Point 9 °F    
Average Humidity 80    
Maximum Humidity 96    
Minimum Humidity 64    
Precipitation  
Precipitation 0.06 in 0.10 in 1.67 in (1895)
Month to date precipitation 0.13 0.63  
Year to date precipitation 0.13 0.63  
Sea Level Pressure  
Sea Level Pressure 29.67 in    
Wind  
Wind Speed 21 mph (West)    
Max Wind Speed 32 mph    
Max Gust Speed 48 mph    
Visibility 3 miles    
Events Fog , Rain , Snow    
T = Trace of Precipitation, MM = Missing Value Source: NWS Daily Summary

Daily Weather History Graph

Daily Weather History Graph

Search for Another Location

Airport or City:

Trip Planner

Search our weather history database for the weather conditions in past years. The results will help you decide how hot, cold, wet, or windy it might be!

Date:

Astronomy

Jan. 06, 2014 Rise Set
Actual Time 7:38 AM EST 5:04 PM EST
Civil Twilight 7:07 AM EST 5:34 PM EST
Nautical Twilight 6:33 AM EST 6:08 PM EST
Astronomical Twilight 6:01 AM EST 6:41 PM EST
Moon 10:51 AM EST (1/6) 11:36 PM EST (1/6)
Length of Visible Light 10h 26m
Length of Day
9h 26m
Waxing Crescent, 34% of the Moon is Illuminated
Jan 6
Waxing Crescent
Jan 7
First Quarter
Jan 15
Full
Jan 24
Last Quarter
Jan 30
New

Hourly Weather History & Observations

Time (EST) Temp. Windchill Dew Point Humidity Pressure Visibility Wind Dir Wind Speed Gust Speed Precip Events Conditions
12:54 AM 41.0 °F 34.3 °F 39.0 °F 93% 29.45 in 10.0 mi SE 11.5 mph 20.7 mph 0.00 in   Overcast
1:54 AM 43.0 °F 36.4 °F 37.9 °F 82% 29.41 in 10.0 mi South 12.7 mph 21.9 mph N/A   Overcast
2:54 AM 43.0 °F 37.2 °F 39.0 °F 86% 29.41 in 10.0 mi SSW 10.4 mph - 0.00 in Rain Light Rain
3:21 AM 39.0 °F 29.0 °F 37.0 °F 93% 29.43 in 5.0 mi West 20.7 mph 34.5 mph 0.03 in Rain Rain
3:29 AM 37.9 °F 27.1 °F 36.0 °F 93% 29.45 in 6.0 mi West 23.0 mph 36.8 mph 0.04 in Rain Light Rain
3:54 AM 37.0 °F 28.1 °F 35.1 °F 93% 29.50 in 10.0 mi WSW 15.0 mph 27.6 mph 0.04 in Rain Light Rain
4:28 AM 37.0 °F 24.1 °F 30.9 °F 79% 29.45 in 10.0 mi WSW 32.2 mph 43.7 mph 0.00 in Rain Light Rain
4:36 AM 36.0 °F 23.0 °F 30.9 °F 82% 29.47 in 10.0 mi WSW 29.9 mph 43.7 mph 0.00 in Rain Light Rain
4:54 AM 35.1 °F 23.5 °F 30.9 °F 85% 29.50 in 7.0 mi West 21.9 mph 36.8 mph 0.00 in Snow Light Snow
5:00 AM 35.1 °F 24.5 °F 32.0 °F 89% 29.46 in 9.0 mi West 18.4 mph 35.7 mph 0.00 in Snow Light Snow
5:09 AM 34.0 °F 22.1 °F 30.9 °F 89% 29.49 in 7.0 mi WSW 21.9 mph 32.2 mph 0.01 in Snow Light Snow
5:24 AM 32.0 °F 18.9 °F 30.0 °F 92% 29.47 in 2.0 mi West 24.2 mph 38.0 mph 0.01 in Snow Light Snow
5:44 AM 30.0 °F 16.3 °F 28.9 °F 96% 29.49 in 1.5 mi West 24.2 mph 32.2 mph 0.01 in Snow Light Snow
5:54 AM 30.0 °F 18.3 °F 28.0 °F 92% 29.55 in 1.2 mi West 17.3 mph 31.1 mph 0.01 in Snow Light Snow
6:07 AM 28.9 °F 15.4 °F 27.0 °F 92% 29.51 in 0.8 mi West 21.9 mph 36.8 mph 0.00 in Snow Light Snow
6:14 AM 28.0 °F 14.9 °F 27.0 °F 96% 29.50 in 1.0 mi West 19.6 mph 32.2 mph 0.00 in Snow Light Snow
6:22 AM 28.0 °F 14.6 °F 27.0 °F 96% 29.51 in 1.2 mi West 20.7 mph 29.9 mph 0.00 in Snow Light Snow
6:35 AM 28.0 °F 12.3 °F 27.0 °F 96% 29.54 in 0.8 mi West 29.9 mph 43.7 mph 0.00 in Snow Light Snow
6:51 AM 26.6 °F 12.0 °F 24.8 °F 93% 29.53 in 1.2 mi West 23.0 mph 33.4 mph 0.00 in Snow Light Snow
6:54 AM 26.1 °F 11.0 °F 24.1 °F 92% 29.61 in 1.2 mi West 24.2 mph 34.5 mph 0.00 in Snow Light Snow
7:34 AM 24.1 °F 7.7 °F 23.0 °F 96% 29.56 in 1.5 mi West 26.5 mph 38.0 mph 0.00 in Snow Light Snow
7:46 AM 23.0 °F 6.3 °F 21.9 °F 96% 29.56 in 2.5 mi West 26.5 mph 36.8 mph 0.00 in Snow Light Snow
7:54 AM 23.0 °F 6.3 °F 21.9 °F 96% 29.64 in 2.0 mi West 26.5 mph 39.1 mph 0.00 in Snow Light Snow
8:02 AM 23.0 °F 6.9 °F 21.9 °F 96% 29.58 in 1.8 mi West 24.2 mph 38.0 mph 0.00 in Snow Light Snow
8:04 AM 23.0 °F 6.6 °F 21.9 °F 96% 29.58 in 2.0 mi West 25.3 mph 36.8 mph 0.00 in Snow Light Snow
8:15 AM 21.9 °F 6.9 °F 21.0 °F 96% 29.58 in 1.5 mi West 19.6 mph 42.6 mph 0.00 in Snow Light Snow
8:33 AM 21.9 °F 6.2 °F 21.0 °F 96% 29.60 in 0.8 mi West 21.9 mph 31.1 mph 0.00 in Snow Light Snow
8:54 AM 21.0 °F 4.6 °F 19.9 °F 96% 29.69 in 0.2 mi West 23.0 mph 32.2 mph 0.00 in Fog , Snow Snow
9:54 AM 19.0 °F 2.7 °F 17.1 °F 92% 29.71 in 0.2 mi West 20.7 mph 32.2 mph 0.01 in Fog , Snow Heavy Snow
10:38 AM 18.0 °F 0.2 °F 14.0 °F 84% 29.65 in 0.5 mi West 24.2 mph 33.4 mph 0.00 in Fog , Snow Light Snow
10:46 AM 18.0 °F 0.9 °F 12.9 °F 81% 29.65 in 1.0 mi West 21.9 mph 33.4 mph 0.00 in Snow Light Snow
10:54 AM 18.0 °F 2.2 °F 12.9 °F 81% 29.72 in 1.2 mi WNW 18.4 mph 31.1 mph 0.00 in Snow Light Snow
11:02 AM 18.0 °F 1.7 °F 14.0 °F 84% 29.64 in 0.8 mi WNW 19.6 mph 27.6 mph 0.00 in Snow Light Snow
11:25 AM 17.1 °F 0.1 °F 12.9 °F 84% 29.63 in 0.8 mi West 20.7 mph 32.2 mph 0.00 in Snow Light Snow
11:34 AM 17.1 °F -0.6 °F 14.0 °F 88% 29.62 in 0.5 mi West 23.0 mph 29.9 mph 0.00 in Fog , Snow Snow
11:46 AM 17.1 °F -0.3 °F 14.0 °F 88% 29.62 in 0.2 mi West 21.9 mph - 0.00 in Fog , Snow Snow
11:54 AM 17.1 °F -0.3 °F 14.0 °F 88% 29.69 in 0.5 mi West 21.9 mph 28.8 mph 0.00 in Fog , Snow Snow
12:02 PM 17.1 °F -1.0 °F 12.9 °F 84% 29.61 in 0.5 mi West 24.2 mph 33.4 mph 0.00 in Fog , Snow Snow
12:16 PM 17.1 °F 0.6 °F 12.9 °F 84% 29.61 in 1.2 mi West 19.6 mph 29.9 mph 0.00 in Snow Light Snow
12:35 PM 17.1 °F 0.1 °F 12.9 °F 84% 29.61 in 0.8 mi West 20.7 mph 26.5 mph 0.00 in Snow Light Snow
12:54 PM 16.0 °F -1.7 °F 12.0 °F 84% 29.68 in 0.8 mi West 21.9 mph 31.1 mph 0.00 in Snow Light Snow
1:54 PM 14.0 °F -4.3 °F 10.0 °F 84% 29.70 in 0.5 mi West 21.9 mph 31.1 mph 0.00 in Fog , Snow Light Snow
2:20 PM 12.0 °F -6.0 °F 8.1 °F 84% 29.63 in 0.5 mi WSW 19.6 mph 28.8 mph 0.00 in Fog , Snow Snow
2:34 PM 10.9 °F -8.3 °F 6.1 °F 81% 29.64 in 1.0 mi WSW 21.9 mph 27.6 mph 0.00 in Snow Light Snow
2:54 PM 10.0 °F -9.5 °F 5.0 °F 80% 29.73 in 1.5 mi West 21.9 mph 28.8 mph 0.00 in Snow Light Snow
3:16 PM 9.0 °F -11.8 °F 5.0 °F 84% 29.66 in 0.8 mi West 24.2 mph 28.8 mph 0.00 in Snow Light Snow
3:33 PM 8.1 °F -11.2 °F 1.9 °F 76% 29.68 in 1.2 mi West 19.6 mph 29.9 mph 0.00 in Snow Light Snow
3:54 PM 6.1 °F -14.8 °F 1.9 °F 83% 29.78 in 1.0 mi West 21.9 mph 33.4 mph 0.00 in Snow Light Snow
4:13 PM 6.1 °F -15.2 °F 1.0 °F 80% 29.68 in 0.5 mi West 23.0 mph 36.8 mph 0.00 in Snow Snow
4:21 PM 5.0 °F -18.7 °F 1.0 °F 84% 29.68 in 0.2 mi West 28.8 mph 42.6 mph 0.00 in Fog , Snow Snow
4:35 PM 3.9 °F -17.6 °F -2.9 °F 73% 29.69 in 0.5 mi West 21.9 mph 42.6 mph 0.00 in Snow Snow
4:50 PM 1.4 °F -23.5 °F -7.6 °F 66% 29.71 in 0.5 mi WSW 28.8 mph 39.1 mph 0.00 in Snow Blowing Snow
4:54 PM 1.9 °F -22.4 °F -8.0 °F 63% 29.82 in 0.5 mi WSW 27.6 mph 39.1 mph 0.00 in Snow Blowing Snow
5:01 PM 1.0 °F -23.2 °F -9.0 °F 63% 29.71 in 0.8 mi West 26.5 mph 39.1 mph N/A Snow Blowing Snow
5:10 PM -0.0 °F -22.9 °F -9.0 °F 66% 29.72 in 1.2 mi West 21.9 mph 40.3 mph N/A Snow Blowing Snow
5:19 PM -0.0 °F -24.3 °F -9.0 °F 66% 29.73 in 1.0 mi West 25.3 mph 36.8 mph N/A Snow Blowing Snow
5:38 PM -0.9 °F -25.9 °F -8.0 °F 72% 29.74 in 2.5 mi West 26.5 mph 34.5 mph N/A Snow Blowing Snow
5:54 PM -0.9 °F -23.5 °F -9.0 °F 69% 29.87 in 1.5 mi West 20.7 mph 36.8 mph 0.00 in Snow Light Snow
6:45 PM -4.0 °F -29.1 °F -11.9 °F 69% 29.78 in 2.5 mi West 24.2 mph 35.7 mph 0.00 in   Overcast
6:54 PM -5.1 °F -28.4 °F -11.9 °F 72% 29.92 in 4.0 mi West 19.6 mph 33.4 mph 0.00 in   Overcast
7:09 PM -6.0 °F -32.2 °F -14.1 °F 68% 29.79 in 2.5 mi West 25.3 mph 39.1 mph 0.00 in   Haze
7:54 PM -7.1 °F -34.6 °F -15.0 °F 68% 29.95 in 1.8 mi West 27.6 mph 39.1 mph 0.00 in   Overcast
8:05 PM -7.1 °F -32.1 °F -15.0 °F 68% 29.82 in 3.0 mi West 21.9 mph 34.5 mph 0.00 in   Overcast
8:19 PM -7.1 °F -35.0 °F -17.0 °F 62% 29.83 in 2.5 mi West 28.8 mph 40.3 mph 0.00 in   Haze
8:36 PM -8.0 °F -34.9 °F -18.0 °F 61% 29.84 in 5.0 mi West 25.3 mph 36.8 mph 0.00 in   Haze
8:54 PM -9.0 °F -33.0 °F -17.0 °F 68% 30.00 in 6.0 mi West 18.4 mph 32.2 mph 0.00 in   Haze
9:25 PM -9.0 °F -31.7 °F -15.0 °F 75% 29.86 in 1.8 mi West 16.1 mph - 0.00 in Snow Light Snow
9:52 PM -9.4 °F -32.1 °F -18.4 °F 65% 29.86 in 3.0 mi West 16.1 mph 35.7 mph 0.00 in   Haze
9:54 PM -9.9 °F -36.5 °F -18.0 °F 68% 30.01 in 4.0 mi West 23.0 mph 38.0 mph 0.00 in   Haze
10:54 PM -9.9 °F -32.8 °F -18.9 °F 65% 30.03 in 6.0 mi West 16.1 mph 27.6 mph 0.00 in   Haze
11:10 PM -9.9 °F -30.5 °F -17.0 °F 71% 29.87 in 2.0 mi West 12.7 mph 24.2 mph 0.00 in Snow Light Snow
11:20 PM -9.9 °F -32.1 °F -17.0 °F 71% 29.87 in 1.5 mi West 15.0 mph 33.4 mph 0.00 in Snow Light Snow
11:31 PM -9.9 °F -35.4 °F -17.0 °F 71% 29.87 in 2.0 mi West 20.7 mph 29.9 mph 0.00 in   Overcast
11:54 PM -11.0 °F -34.2 °F -16.1 °F 78% 30.04 in 1.5 mi West 16.1 mph 25.3 mph 0.00 in Snow Light Snow